User: anonymous   Login
Location: Unspecified
(0.0000°N, 0.0000°E)
Time: 12:32:07
(UTC+00:00)
Language:

SICRAL 1B - Orbit

View from above orbital plane
View from above orbital plane
View from above satellite
View from above satellite

Ground track
Ground track

The orbit data is extracted from the following two-line orbital elements,

1 34810U 09020A   19047.82619120 0.00000000  00000-0  00000-0 0    00
2 34810   0.0425  95.6181 0012449 138.9135 221.1968  1.00270000    08
Epoch (UTC): 16 February 2019 19:49:42
Eccentricity: 0.0012449
inclination: 0.0425°
perigee height: 35734 km
apogee height: 35839 km
right ascension of ascending node: 95.6181°
argument of perigee: 138.9135°
revolutions per day: 1.00270000
mean anomaly at epoch: 221.1968°
orbit number at epoch: 0

The dashed part of the orbit path shows where the satellite is in the earth's shadow,  

DLR